This is the latest recevied weather packets stored in our database for station/object 4S6DRJ-13. If no packets are shown the sender has not sent any weather packets the latest 10 day(s).
| Time | Temp. | Humidity | Pressure | Rain* | Wind** | Luminosity | Snow |
|---|---|---|---|---|---|---|---|
| 1788394965 | 27.78° C | 86% | 1009.5 hPa | 0 mm | 0 m/s | 1 W/m² | - |
| 1788394905 | 27.78° C | 86% | 1009.3 hPa | 0 mm | 0 m/s | 0 W/m² | - |
| 1788394844 | 27.78° C | 86% | 1009.2 hPa | 0 mm | 0.45 m/s, 202° | 0 W/m² | - |
| 1788394783 | 27.78° C | 86% | 1009.2 hPa | 0 mm | 0 m/s | 0 W/m² | - |
| 1788394722 | 27.78° C | 86% | 1009.2 hPa | 0 mm | 0 m/s | 0 W/m² | - |
| 1788394661 | 27.78° C | 86% | 1009.2 hPa | 0 mm | 0.45 m/s, 217° | 0 W/m² | - |
| 1788394600 | 27.78° C | 86% | 1009.2 hPa | 0 mm | 1.34 m/s, 234° | 0 W/m² | - |
| 1788394539 | 27.78° C | 86% | 1009.2 hPa | 0 mm | 0 m/s | 0 W/m² | - |
| 1788394479 | 27.78° C | 86% | 1009.3 hPa | 0 mm | 0 m/s | 0 W/m² | - |
| 1788394417 | 27.78° C | 86% | 1009.3 hPa | 0 mm | 0.45 m/s, 227° | 0 W/m² | - |
| 1788394356 | 27.78° C | 86% | 1009.3 hPa | 0 mm | 0.89 m/s, 216° | 0 W/m² | - |
| 1788394295 | 27.78° C | 86% | 1009.3 hPa | 0 mm | 0 m/s | 0 W/m² | - |
| 1788394234 | 27.78° C | 86% | 1009.2 hPa | 0 mm | 0.89 m/s, 222° | 0 W/m² | - |
| 1788394173 | 27.78° C | 86% | 1009.2 hPa | 0 mm | 0.45 m/s, 165° | 0 W/m² | - |
| 1788394112 | 27.78° C | 86% | 1009.2 hPa | 0 mm | 0 m/s | 0 W/m² | - |
| 1788394051 | 27.78° C | 86% | 1009.3 hPa | 0 mm | 1.34 m/s, 325° | 0 W/m² | - |
| 1788393990 | 27.78° C | 86% | 1009.4 hPa | 0 mm | 0.89 m/s, 211° | 0 W/m² | - |
| 1788393929 | 27.78° C | 86% | 1009.2 hPa | 0 mm | 0.45 m/s, 225° | 0 W/m² | - |
| 1788393868 | 27.78° C | 86% | 1009.3 hPa | 0 mm | 1.34 m/s, 217° | 0 W/m² | - |
| 1788393807 | 27.78° C | 86% | 1009.2 hPa | 0 mm | 0.45 m/s, 226° | 0 W/m² | - |
| 1788393746 | 27.78° C | 86% | 1009.2 hPa | 0 mm | 0 m/s | 0 W/m² | - |
| 1788393686 | 27.78° C | 86% | 1009 hPa | 0 mm | 0 m/s | 0 W/m² | - |
| 1788393624 | 27.78° C | 86% | 1009.1 hPa | 0 mm | 1.34 m/s, 217° | 0 W/m² | - |
| 1788393563 | 27.78° C | 86% | 1009.2 hPa | 0 mm | 0.45 m/s, 224° | 0 W/m² | - |
| 1788393502 | 27.78° C | 86% | 1009.1 hPa | 0 mm | 0.89 m/s, 299° | 0 W/m² | - |
* Rain latest hour (hover to see other rain measurements)
** Current wind speed in m/s (hover to see current wind gust speed)